Theta_e
307 308 309 310 309 308 307 307 307 307 307 307 308 309 311 311 308 308 308 314 307 302 303 303 301 297 296 297 292 298 297 296 294 290 290 292 291 294 292 294 292 290 289 288 290 286 284 302 300 293 298 303 302 302
305 306 307 307 307 307 307 307 307 307 307 307 308 308 311 311 309 306 306 310 309 301 304 308 307 308 304 303 298 297 298 295 295 294 296 294 290 294 292 287 297 290 294 290 291 293 300 302 302 302 302 301 301 302
304 306 306 306 306 306 307 307 306 306 306 307 308 309 310 310 310 308 308 304 305 299 302 303 301 307 310 309 308 295 298 298 298 301 295 294 289 294 289 291 293 296 299 293 293 298 298 302 302 303 302 301 304 303
304 304 304 305 305 306 305 305 305 305 304 305 306 308 310 310 310 308 306 308 303 301 292 298 308 304 307 307 305 303 300 300 302 299 293 290 290 297 292 294 292 295 296 294 294 297 300 301 302 302 302 304 303 302
303 303 303 304 304 304 304 304 304 303 303 304 305 307 309 310 310 310 306 305 306 299 293 295 304 306 307 307 302 302 301 297 292 290 290 289 295 294 296 295 293 297 295 293 293 299 298 298 302 303 303 301 301 301
302 302 303 303 304 304 304 304 303 303 303 303 304 307 309 310 306 304 298 304 304 304 296 293 303 302 303 303 302 300 299 297 293 290 292 295 300 295 290 290 297 300 302 302 299 301 301 302 303 304 301 301 302 301
302 302 303 303 303 303 304 304 304 304 304 303 304 306 308 308 306 301 301 303 305 306 295 292 295 301 303 301 300 298 299 297 294 291 292 293 295 297 292 290 296 299 300 300 302 302 299 301 300 302 302 302 302 302
302 302 302 303 303 303 303 304 304 304 304 304 304 305 308 305 303 302 304 305 305 298 297 289 293 297 302 296 294 299 295 294 293 293 296 294 297 297 290 296 298 300 301 301 301 301 301 303 301 301 303 302 300 299
302 302 302 303 303 303 303 304 303 304 304 304 305 305 304 302 299 300 304 303 304 300 292 291 290 290 301 300 301 296 296 290 298 291 294 297 294 290 295 298 298 300 299 299 301 302 301 299 299 300 300 300 298 298
303 303 302 303 303 304 304 304 303 304 305 305 304 300 293 299 305 305 298 293 292 292 292 290 296 291 297 296 295 293 293 291 289 294 298 290 292 298 300 301 302 301 300 301 298 296 297 298 298 298 298 299 298 298
303 303 302 302 303 304 305 304 304 305 305 301 297 294 298 304 300 297 291 289 290 288 292 293 295 293 299 291 292 295 288 293 288 293 292 291 292 297 300 300 302 301 302 301 300 300 300 300 298 297 296 298 299 298
302 304 303 303 303 304 304 305 305 304 302 301 299 300 299 295 292 289 288 290 288 287 295 294 294 297 295 299 294 293 290 293 287 297 292 289 296 299 299 298 299 301 300 299 300 299 299 299 299 298 297 298 299 299
302 303 303 303 303 304 305 305 305 303 303 301 296 292 292 291 285 285 283 289 290 296 297 296 293 295 296 295 291 291 289 289 299 291 290 295 299 300 300 300 298 300 299 298 299 300 300 299 300 299 297 298 300 299
302 302 303 303 304 304 305 305 304 302 299 293 290 285 289 285 289 293 294 295 299 299 298 297 295 295 296 292 294 289 293 296 288 287 287 296 299 299 299 298 297 296 297 298 299 299 298 298 298 298 298 299 299 297
302 302 302 303 303 304 305 305 304 303 296 291 290 287 290 296 298 298 298 300 300 301 299 292 291 292 292 291 294 292 289 287 290 290 296 299 300 298 297 297 296 296 298 298 299 298 297 298 298 297 298 300 300 298
302 302 302 304 304 305 305 305 302 300 296 292 289 290 296 295 296 297 299 297 300 300 299 294 290 287 288 290 289 288 288 287 294 299 299 300 299 298 298 297 296 297 298 298 298 298 298 298 296 296 300 300 298 297
302 300 303 303 304 304 303 299 298 293 292 289 290 296 296 297 298 300 300 300 304 299 291 291 287 288 294 290 289 295 292 297 301 299 300 300 299 298 298 297 296 297 297 297 298 299 298 297 297 298 297 298 298 297
300 304 303 303 304 301 298 297 293 290 288 291 293 295 298 299 298 297 301 304 300 297 293 290 294 288 290 287 292 297 299 301 301 300 300 299 299 298 297 297 297 297 297 297 298 299 299 298 297 297 298 298 298 296
302 304 303 303 300 296 293 292 293 288 291 296 297 299 299 298 301 302 302 305 302 298 294 291 289 290 293 297 298 300 299 300 299 300 300 301 300 298 297 297 297 297 297 298 298 298 299 299 299 299 298 297 296 295
301 302 302 302 301 293 287 290 294 292 292 295 298 297 297 297 299 299 299 300 297 294 290 289 292 297 297 300 303 302 302 302 301 298 298 299 300 299 297 297 297 297 297 298 299 295 299 299 299 298 298 296 295 293
301 302 302 301 297 296 293 292 291 292 294 294 298 297 295 298 297 295 296 301 293 291 290 296 298 300 302 303 303 304 302 303 301 300 299 298 300 300 299 299 300 298 296 296 296 297 297 297 298 298 298 297 297 295
299 301 298 299 293 293 292 295 293 296 294 294 294 295 293 292 294 295 299 293 291 294 297 299 300 301 301 301 303 304 304 303 303 299 296 295 299 298 297 297 297 296 296 296 296 297 298 298 297 298 297 297 296 296
299 298 295 295 290 290 289 298 291 292 288 290 293 290 290 291 295 298 292 293 295 300 301 301 302 302 301 304 304 304 303 302 300 299 299 299 299 299 298 297 298 296 296 296 297 298 298 292 295 297 297 297 297 296
299 293 290 290 292 288 292 289 291 290 290 290 290 288 290 291 294 291 289 292 298 301 300 300 300 300 301 302 300 301 301 302 300 299 299 299 297 297 297 297 298 298 298 297 297 298 298 298 294 297 296 295 296 295
289 288 290 287 291 289 287 287 288 288 287 289 289 290 290 291 289 289 290 294 297 299 299 300 300 299 298 298 299 299 301 300 297 297 299 299 298 297 297 297 297 297 298 296 295 295 297 298 297 297 296 294 294 295
286 289 288 289 289 288 289 287 288 288 290 289 291 294 292 289 288 288 291 294 297 298 299 300 299 298 298 299 297 297 298 300 299 297 299 300 299 298 296 296 295 295 297 297 295 294 294 296 296 296 295 294 289 294
285 287 292 296 294 293 292 293 294 292 288 288 292 289 288 288 287 288 294 295 296 299 301 302 301 299 298 298 298 299 301 301 301 299 300 299 299 299 298 296 294 295 297 295 295 294 293 295 296 295 295 296 295 295
291 291 288 292 291 294 289 290 289 289 291 296 293 288 286 285 284 287 291 295 298 301 300 301 302 301 300 300 300 299 300 300 300 299 299 299 299 298 298 296 295 285 294 292 292 294 293 294 295 295 295 294 295 295
290 294 293 289 290 291 291 290 291 295 297 294 289 287 285 285 287 289 293 297 300 299 297 297 297 299 299 299 299 299 299 298 295 294 294 293 294 295 298 298 297 297 296 294 281 286 289 290 291 292 294 295 295 296
289 294 290 290 288 289 291 292 291 292 291 290 289 288 287 287 288 292 296 298 298 297 298 297 298 297 296 296 295 296 299 300 300 300 296 296 295 297 297 296 296 295 295 294 293 293 284 289 290 291 292 293 292 293
293 291 291 290 288 289 290 292 292 292 291 290 292 289 286 287 289 290 289 293 297 298 298 296 297 298 297 296 295 294 292 296 296 297 298 297 297 296 295 294 294 294 293 293 292 291 290 291 291 290 290 290 289 289
291 291 290 287 288 291 293 291 290 289 290 289 289 290 290 290 286 287 288 293 294 293 289 294 294 293 295 295 295 295 290 295 294 294 294 294 293 293 293 293 293 293 292 291 291 290 289 289 288 288 288 288 288 288
291 291 291 290 288 289 291 291 290 289 289 288 288 289 289 288 283 286 290 291 291 292 292 293 294 293 293 292 291 289 288 287 283 282 282 281 281 284 290 291 291 290 290 290 289 288 286 284 284 284 284 284 284 284
Wind_Speed
11 12 10 7 1 2 4 5 5 6 5 6 7 8 8 4 6 4 3 5 5 4 8 4 1 4 3 4 4 3 8 5 5 4 4 3 6 4 7 6 5 8 5 5 7 6 9 11 5 6 9 13 16 17
12 9 8 3 2 4 5 5 6 6 6 7 6 8 7 4 9 4 2 3 4 3 8 11 11 11 11 11 5 3 7 4 4 4 1 5 5 5 8 5 2 5 3 2 5 4 4 3 10 7 7 12 16 19
12 11 8 7 6 6 7 6 6 5 6 6 6 8 8 5 9 9 1 2 1 2 8 7 2 3 5 9 9 5 3 4 6 5 4 3 6 7 7 6 7 5 6 5 7 5 6 14 4 6 11 14 18 19
11 10 10 9 9 7 6 6 5 6 6 7 7 8 8 6 3 11 3 2 1 3 2 1 6 4 3 6 7 9 9 3 3 3 1 3 5 4 7 7 10 9 8 13 16 14 11 4 8 12 15 17 19 20
11 11 12 11 9 8 7 6 6 6 6 7 8 9 9 6 3 7 2 3 1 1 3 6 16 6 7 12 13 12 9 5 2 1 2 4 6 6 9 11 12 5 8 6 8 6 7 10 14 16 16 19 18 20
12 12 12 11 9 8 8 8 8 8 7 6 8 8 9 5 11 2 2 4 4 1 2 5 4 8 7 6 6 6 6 3 2 2 3 6 9 4 5 7 9 12 11 6 7 10 11 13 15 16 17 18 18 19
12 12 11 11 10 9 8 9 8 8 7 7 8 7 7 12 2 1 4 2 10 3 2 5 3 6 5 5 3 5 5 2 2 2 5 10 6 5 4 11 13 8 5 5 7 8 11 13 14 15 16 17 18 20
12 11 10 9 9 9 8 8 8 6 7 7 7 6 2 12 8 2 3 9 5 1 3 3 5 4 6 4 4 3 4 4 5 3 4 5 3 5 6 9 4 4 7 6 5 8 13 14 14 15 15 16 20 19
12 11 10 8 8 8 8 8 5 6 6 5 2 17 4 1 2 3 11 6 2 3 3 3 4 1 4 3 2 3 2 4 3 5 4 4 4 7 9 8 6 6 5 8 11 13 14 13 14 15 16 18 19 20
12 11 10 8 8 9 7 7 7 6 6 7 4 3 2 1 16 14 2 2 1 0 1 4 4 4 2 2 2 2 3 3 4 6 5 3 7 14 10 6 4 5 6 9 12 13 13 13 14 16 16 17 18 19
13 13 11 9 7 8 6 7 7 4 8 1 2 2 2 6 2 3 3 3 4 4 5 6 8 5 2 3 1 2 2 4 4 4 4 4 4 2 4 4 2 5 8 10 10 11 12 13 14 13 15 18 18 20
13 12 10 9 6 8 6 7 8 4 1 4 5 4 2 2 2 4 4 4 5 5 7 5 4 4 2 2 1 2 3 4 5 5 4 3 3 6 4 3 3 6 7 9 10 12 12 12 11 12 14 16 18 19
13 12 8 8 7 10 8 6 7 14 9 2 2 3 4 3 4 6 7 6 6 6 5 4 4 3 3 2 2 4 6 5 2 4 4 4 5 5 3 6 6 6 8 9 9 10 11 12 13 13 14 16 18 18
13 6 8 8 9 7 6 12 18 8 2 2 4 5 6 6 7 7 4 4 3 4 3 3 2 3 3 5 5 5 5 3 5 5 2 4 6 6 6 5 6 8 8 8 10 10 12 12 13 13 14 16 16 17
9 7 7 7 9 7 6 15 16 2 1 2 3 5 8 7 3 4 4 1 3 5 4 3 1 2 2 4 3 5 4 4 3 4 2 5 6 6 6 6 7 7 8 9 10 11 13 13 14 14 14 15 16 15
7 5 6 8 8 8 8 15 2 1 2 2 3 5 7 6 7 7 2 2 5 6 5 2 1 2 5 3 4 5 3 2 2 2 5 6 6 6 6 7 7 7 8 9 10 11 11 14 14 13 14 15 16 16
5 3 4 9 6 5 11 3 2 3 3 4 5 7 9 7 2 2 3 1 5 5 3 2 4 5 3 4 5 3 2 1 1 4 7 6 6 6 6 6 6 7 8 9 10 10 10 10 11 12 15 16 16 16
4 4 6 6 8 5 2 1 2 2 5 6 6 6 8 7 8 6 2 3 4 5 4 2 3 4 4 3 1 3 3 3 5 5 6 6 5 5 6 6 6 7 7 8 9 11 10 10 11 11 14 15 14 15
2 1 7 11 6 3 3 4 3 3 8 4 8 9 8 7 9 6 3 5 6 5 3 2 4 4 4 3 3 3 2 3 5 5 7 5 5 5 4 4 5 6 5 6 8 8 7 9 9 10 11 11 11 13
8 8 7 14 5 3 2 2 2 4 4 6 8 9 8 7 6 5 3 8 6 4 3 4 5 2 3 5 1 2 2 5 5 5 6 6 4 4 5 5 4 4 5 6 5 7 8 9 9 10 10 11 11 13
7 5 11 7 2 2 2 3 4 3 4 4 4 4 4 4 6 5 3 6 3 4 3 8 8 2 8 3 4 3 3 3 2 2 5 7 4 3 3 3 1 5 5 6 7 6 7 9 10 9 11 11 11 12
3 5 2 1 1 4 2 3 2 1 3 2 2 2 2 5 6 5 4 3 3 4 7 7 5 4 8 6 2 3 5 4 7 6 6 4 4 3 5 4 5 5 6 6 6 6 8 8 10 9 10 11 11 11
6 2 2 3 3 4 1 4 4 3 3 3 3 3 3 2 1 3 2 3 4 6 8 5 6 5 1 7 6 6 5 5 5 6 4 5 5 4 4 5 5 6 6 6 5 6 6 5 7 10 11 11 11 12
4 3 3 4 5 4 4 3 2 2 2 3 3 3 3 3 3 2 2 2 5 4 7 8 6 4 5 7 5 5 5 3 6 5 4 4 5 5 4 4 5 5 5 5 5 5 6 6 6 9 11 12 12 12
3 4 3 4 3 4 6 5 4 3 4 5 5 4 3 2 3 3 2 2 4 3 7 6 7 6 6 6 6 6 5 5 5 5 4 5 5 4 4 5 5 6 6 6 6 6 6 6 7 8 9 11 13 13
4 5 5 7 5 5 5 4 5 6 4 4 4 4 2 2 4 2 3 4 6 3 3 5 3 4 5 7 7 6 5 5 6 5 4 4 3 3 4 2 4 7 6 6 6 7 7 7 7 9 8 9 6 11
3 5 4 4 2 3 4 4 4 3 3 3 3 3 2 4 3 3 2 6 4 3 1 6 5 4 5 7 8 6 4 5 6 7 6 6 6 7 7 6 7 6 6 7 6 7 7 7 7 8 8 7 8 9
3 2 5 6 4 3 2 2 3 4 3 1 4 1 2 4 3 3 3 4 4 2 4 4 5 5 7 7 7 7 7 8 8 8 7 6 5 5 7 6 7 5 5 7 8 7 7 7 7 7 7 7 7 7
3 1 2 4 1 5 5 3 3 3 4 3 2 3 4 3 2 3 4 5 3 6 6 6 6 7 7 7 7 6 5 5 7 8 5 5 7 5 4 4 4 3 4 5 4 5 6 6 7 7 7 6 6 6
3 3 2 6 2 1 4 3 2 3 4 3 4 4 4 3 4 7 8 3 3 5 5 6 6 6 7 8 8 8 5 5 5 4 4 6 6 5 5 4 4 5 5 5 6 3 5 5 6 5 3 6 7 7
4 2 1 2 2 2 4 5 5 3 3 4 6 8 5 4 2 5 8 10 4 6 6 6 6 5 6 7 7 7 7 6 9 9 7 6 5 4 4 4 5 5 5 5 5 6 8 6 7 7 7 7 7 7
2 3 3 3 3 4 2 2 2 2 2 2 3 2 3 2 4 4 7 9 6 7 7 7 7 7 8 8 9 10 11 9 10 9 9 7 6 5 4 5 5 4 5 6 6 8 9 9 8 8 8 9 9 9
2 2 3 3 3 3 3 3 3 3 3 2 3 3 4 4 5 3 2 5 6 6 7 7 8 9 11 12 12 10 11 11 13 12 12 12 11 10 7 6 5 6 6 7 7 7 9 11 10 11 11 11 11 11
Wind_Direction
325 326 299 269 153 242 274 276 278 270 282 287 297 310 310 261 219 280 42 21 325 288 316 288 302 223 239 258 256 35 258 208 233 239 275 294 288 287 268 252 203 198 227 211 237 246 243 355 332 334 348 333 328 316
308 313 333 323 293 266 267 267 269 268 277 283 291 298 305 301 201 186 265 70 13 280 317 326 278 261 237 257 246 228 328 289 357 288 301 285 275 293 308 284 300 281 237 339 259 310 288 286 259 323 359 318 309 313
296 294 288 283 282 278 264 259 261 272 288 294 300 294 298 289 187 189 107 139 194 248 260 217 121 215 197 234 202 253 207 279 252 341 334 304 283 294 275 286 291 292 181 235 289 235 332 286 1 11 327 304 319 315
292 293 287 282 275 265 257 262 268 273 279 293 296 293 292 274 202 180 189 168 275 26 293 110 176 220 190 176 189 213 263 47 11 310 225 266 266 283 282 281 283 286 285 282 272 270 341 352 349 334 316 314 323 317
292 286 283 279 274 256 252 257 258 264 274 282 289 290 290 254 263 192 132 178 14 303 331 305 299 292 182 212 206 213 219 170 113 234 208 245 256 283 268 280 270 339 285 281 294 333 310 311 320 310 324 326 321 321
289 288 286 281 272 258 253 251 252 257 258 269 274 294 292 222 130 136 199 168 175 185 262 286 53 211 159 197 206 175 209 120 123 211 262 256 269 268 283 266 284 336 325 332 308 322 305 310 295 332 324 322 320 316
286 284 282 277 272 264 255 256 256 258 264 272 278 280 301 162 156 192 2 73 153 134 229 260 201 152 152 145 115 142 162 133 178 222 240 253 248 226 263 273 292 306 297 316 290 322 307 311 321 322 322 322 318 315
281 284 279 275 273 268 258 256 258 267 274 262 258 300 175 115 118 147 107 103 102 128 258 274 278 181 180 156 173 178 164 184 194 247 235 235 207 223 249 259 277 338 333 321 325 293 294 311 325 327 326 324 320 321
276 280 279 271 273 270 261 251 252 261 260 249 244 127 127 104 177 104 128 101 48 297 267 213 261 20 170 155 157 154 222 217 188 225 247 217 247 230 255 316 322 333 348 323 314 308 319 325 326 330 328 325 324 320
275 267 271 269 283 276 251 243 238 240 241 170 169 186 133 75 116 126 127 156 186 128 269 261 246 247 190 206 191 126 209 224 231 206 130 228 258 250 264 319 341 356 323 322 319 322 324 323 330 325 330 324 316 327
267 268 262 263 283 301 241 224 226 223 134 182 188 87 66 155 217 206 167 218 162 214 202 224 248 253 78 248 237 156 265 259 255 158 224 221 251 106 155 95 356 344 318 327 320 313 317 327 327 333 323 317 324 327
278 263 238 246 277 292 258 222 202 178 141 114 104 98 111 194 201 242 207 162 220 236 182 218 163 191 118 281 275 200 254 251 257 166 232 237 101 101 79 38 280 322 337 326 332 330 332 322 334 327 322 328 325 328
273 261 237 245 256 267 229 216 179 127 132 114 91 149 186 142 203 225 197 201 193 198 156 171 163 141 151 165 223 235 240 223 144 233 242 59 104 58 34 15 355 339 355 342 335 335 334 341 336 344 336 328 323 338
282 247 251 249 252 248 247 165 148 133 114 172 179 163 226 176 234 214 249 38 72 74 98 126 139 227 199 189 239 237 231 190 222 212 226 91 57 59 39 16 8 0 354 347 353 347 348 346 346 347 342 317 336 343
251 240 251 257 237 236 223 159 157 146 139 177 217 224 212 242 222 106 269 132 122 96 98 108 127 271 263 255 254 281 247 245 334 32 81 72 59 51 48 31 16 9 360 356 355 351 350 349 358 348 325 333 348 349
230 234 223 207 207 211 168 152 116 144 173 177 234 256 233 257 217 192 169 255 136 110 117 133 211 219 218 229 242 241 254 256 331 49 82 103 77 64 47 31 24 16 358 357 352 354 353 7 352 332 333 356 347 5
206 240 212 203 195 124 125 118 123 211 207 210 232 234 269 291 179 226 238 219 126 128 140 170 222 225 252 230 221 200 205 286 184 80 73 72 83 67 47 48 24 20 6 2 353 355 24 1 337 338 356 1 350 8
231 207 199 144 151 109 74 86 140 228 221 223 234 216 217 254 278 264 264 117 161 138 143 221 270 228 236 245 213 212 174 104 53 87 102 107 100 72 45 42 24 23 13 1 0 347 20 6 355 352 5 4 357 8
260 277 176 166 139 122 146 173 171 226 227 232 234 261 252 231 246 255 207 136 110 109 141 221 243 245 226 223 264 65 302 134 127 122 107 110 104 72 44 38 46 22 5 3 20 352 8 17 0 4 10 7 5 13
254 259 266 164 153 115 135 180 253 253 233 225 230 244 242 245 255 242 233 134 141 139 188 218 239 264 265 241 351 117 166 118 140 152 149 138 124 137 56 21 37 13 2 7 60 28 5 21 5 15 19 18 9 17
180 166 153 143 138 186 195 177 198 239 275 274 333 325 297 326 283 258 226 152 153 176 218 225 257 278 274 53 2 337 116 117 180 312 127 127 161 104 95 75 24 83 44 30 10 35 28 29 355 16 14 21 17 29
91 104 115 137 140 176 226 219 269 137 220 272 293 240 242 243 232 229 148 163 216 203 234 252 273 213 254 224 208 251 116 134 79 109 107 121 155 120 63 41 31 41 60 26 35 20 35 21 3 16 18 11 20 35
112 86 137 156 183 195 217 201 198 199 230 210 201 210 213 232 248 123 210 221 232 232 234 205 207 250 29 100 126 124 141 160 160 109 150 89 87 83 81 60 53 30 49 36 22 30 39 20 33 11 14 12 20 23
134 176 191 187 207 179 162 190 200 229 224 227 218 201 201 194 142 195 239 217 249 296 190 175 195 172 158 159 145 137 165 135 113 122 122 133 108 77 60 59 64 60 20 39 18 27 28 34 16 29 25 11 12 21
187 173 206 179 212 198 201 175 187 214 237 220 224 182 148 175 197 207 218 99 117 159 160 196 214 181 165 137 119 114 151 150 147 129 97 73 90 121 102 85 70 44 25 24 19 18 24 23 26 21 37 29 5 17
220 174 206 197 169 222 217 187 193 217 223 211 228 108 166 191 208 130 69 30 94 138 156 183 206 153 152 130 136 149 159 143 126 117 108 88 46 43 75 56 101 73 26 19 18 3 15 12 23 10 20 32 31 12
212 207 201 231 242 163 235 205 206 215 222 230 133 140 208 209 98 57 40 24 17 9 187 210 220 154 135 129 129 122 120 120 109 94 78 64 51 28 27 45 67 35 31 16 14 9 358 2 16 13 8 20 25 12
261 267 203 192 208 189 316 293 244 228 223 153 123 109 46 25 71 1 345 339 310 297 79 34 35 93 101 123 127 124 109 101 112 113 102 89 77 74 76 72 65 18 55 33 360 19 359 357 359 12 6 6 10 20
222 262 212 193 76 242 188 215 291 27 15 46 49 81 87 65 2 334 293 280 208 158 139 111 93 107 118 111 103 111 123 147 149 175 183 132 140 101 76 68 66 38 7 95 103 27 20 8 8 360 347 339 354 351
186 180 222 166 225 255 45 5 15 48 44 66 113 123 101 85 23 345 339 36 101 103 113 128 143 136 125 117 111 99 84 61 27 29 79 77 61 47 48 37 31 28 15 357 356 72 184 255 215 229 345 8 19 347
137 203 175 95 81 72 88 83 67 56 49 40 60 94 103 128 115 25 2 327 47 71 66 72 74 94 123 126 125 118 96 69 66 73 91 115 112 89 58 34 27 20 15 16 11 18 359 353 11 359 20 15 23 359
200 204 137 131 111 143 158 56 64 86 110 86 88 104 152 142 83 59 356 332 67 81 64 84 87 80 78 82 73 66 54 64 50 43 52 61 63 53 51 40 46 26 17 29 32 31 14 14 16 11 6 6 7 12
97 68 91 105 129 161 139 132 118 117 100 80 70 67 45 46 75 90 52 14 1 56 80 82 81 76 80 85 91 87 79 79 72 59 55 48 34 9 18 25 29 16 22 29 36 51 43 26 24 15 11 5 5 7